Regional Weather Roundup
Issued by NWS

Home | Current Version | Previous Version | Text Only | Print | Product List | Glossary Off
Versions: 1 2 3 4 5 6 7 8 9 10 11 12 13 14 15 16 17 18 19 20 21 22 23 24 25 26 27 28 29 30 31 32 33 34 35 36 37 38 39 40 41 42 43 44 45 46 47 48 49 50

000
ASUS43 KFSD 261010
RWRSD

WEATHER ROUNDUP FOR SOUTH DAKOTA
NATIONAL WEATHER SERVICE SIOUX FALLS SD
500 AM CDT THU MAR 26 2015

NOTE: "FAIR" INDICATES FEW OR NO CLOUDS BELOW 12,000 FEET WITH NO
SIGNIFICANT WEATHER AND/OR OBSTRUCTIONS TO VISIBILITY.


SDZ001>005-009-010-012>017-261100-
NORTHWEST AND NORTH CENTRAL SOUTH DAKOTA

CITY           SKY/WX    TMP DP  RH WIND       PRES   REMARKS
BUFFALO          N/A     31  25  78 SE9       29.99F WCI  23
FAITH            N/A     29  20  69 S13       30.11F WCI  19
MOBRIDGE       MOCLDY    22  18  85 CALM      30.15S
$$

SDZ012>016-024>037-041>051-057-063-072>074-261100-
SOUTHWEST AND SOUTH CENTRAL SOUTH DAKOTA

CITY           SKY/WX    TMP DP  RH WIND       PRES   REMARKS
RAPID CTY ARPT CLOUDY    32  25  75 CALM      30.11F
PIERRE         PTCLDY    22  16  78 SW7       30.17F WCI  13
CUSTER         CLOUDY    28  21  75 W7        30.08F WCI  21
ELLSWORTH AFB  CLOUDY    33  25  75 W6        30.09F WCI  27
PHILIP         MOCLDY    15  12  88 W3        30.16F
PINE RIDGE     CLOUDY    26  20  77 CALM      30.14F
SPEARFISH      CLOUDY    39  28  65 W8        30.09F
WINNER         FAIR      20  13  74 S5        30.19F WCI  13
$$

SDZ004>011-016>023-039-040-261100-
NORTHEAST SOUTH DAKOTA

CITY           SKY/WX    TMP DP  RH WIND       PRES   REMARKS
ABERDEEN       CLEAR     24  18  77 NW8       30.17F WCI  15
WATERTOWN      PTCLDY    30  23  75 NW9       30.13F WCI  22
SISSETON         N/A     26  25  96 N6        30.15S WCI  19
$$

SDZ017-020-022-023-036>040-048>070-261100-
SOUTHEAST SOUTH DAKOTA

CITY           SKY/WX    TMP DP  RH WIND       PRES   REMARKS
SIOUX FALLS    MOCLDY    27  21  78 W7        30.17F WCI  19
HURON          CLEAR     17  13  84 W7        30.18F WCI   8
CHAMBERLAIN    CLEAR     18  15  90 SW3       30.19F
MITCHELL       CLEAR     22  16  78 W8        30.21F WCI  12
YANKTON        CLEAR     25  18  74 W8        30.21F WCI  16
$$

ABBREVIATIONS USED IN REMARKS
   TC - TEMPERATURE IN CELSIUS
  WCI - WIND CHILL INDEX
   HX - HEAT INDEX
  VSB - VISIBILITY



USA.gov is the U.S. government's official web portal to all federal, state and local government web resources and services.